Flag for Spain Weather past 2 weeks in Pamplona, Spain

Now
73 °F

Scattered clouds.


Feels Like: 77 °F
Forecast: 60 / 73 °F
Wind: 16 mph from Northwest

Location: Pamplona / Noain

Current Time: Aug 29, 2014 at 5:14:57 PM

Latest Report: Aug 29, 2014 at 4:30 PM


Visibility: N/A

Pressure: 30.12 "Hg

Humidity: 57%

Dew point: 57 °F

Location of PamplonaLocation

Historic Weather in Pamplona — Graph

°F

Pamplona temperature yesterday

Maximum temperature yesterday: 90 °F (at 3:30 PM)
Minimum temperature yesterday: 63 °F (at 5:30 AM)
Average temperature yesterday: 74 °F

Past Weeks' High & Low Weather Summary

 TemperatureHumidityPressure
High91 °F (Aug 25, 4:30 PM)100% (Aug 15, 7:00 AM)30.30 "Hg (Aug 15, 7:00 AM)
Low46 °F (Aug 23, 5:30 AM)15% (Aug 27, 4:00 PM)29.86 "Hg (Aug 18, 4:00 PM)
Average67 °F67%30.08 "Hg
* Reported Aug 14 4:00 PM — Aug 29 4:00 PM, Pamplona, Weather by CustomWeather, © 2014

Note: Actual official high and low records may vary slightly from our data, if they occured in-between our weather recording intervals... More about our weather records

Advertising

Pamplona weather history for previous 24 hours

 ConditionsComfort  
Time TempWeatherWind HumidityBarometerVisibility
4:00 PM
Aug 29
73 °FScattered clouds.17 mph61%30.12 "HgN/A
3:30 PM73 °FScattered clouds.18 mph57%30.15 "HgN/A
3:00 PM73 °FPartly sunny.18 mph57%30.15 "HgN/A
2:30 PM73 °FScattered clouds.16 mph57%30.12 "HgN/A
2:00 PM75 °FScattered clouds.15 mph57%30.15 "HgN/A
1:30 PM73 °FScattered clouds.15 mph57%30.15 "HgN/A
1:00 PM72 °FScattered clouds.14 mph61%30.15 "HgN/A
12:30 PM73 °FScattered clouds.10 mph57%30.15 "HgN/A
12:00 PM72 °FPassing clouds.12 mph61%30.15 "HgN/A
11:30 AM70 °FPassing clouds.13 mph64%30.15 "HgN/A
11:00 AM68 °FScattered clouds.13 mph69%30.15 "HgN/A
10:30 AM68 °FScattered clouds.16 mph69%30.15 "HgN/A
10:00 AM66 °FScattered clouds.14 mph73%30.15 "HgN/A
9:30 AM64 °FPartly sunny.13 mph78%30.15 "HgN/A
9:00 AM64 °FPartly sunny.12 mph78%30.15 "HgN/A
8:30 AM64 °FPartly sunny.10 mph83%30.12 "HgN/A
8:00 AM64 °FPassing clouds.8 mph83%30.12 "HgN/A
7:30 AM64 °FPartly cloudy.7 mph83%30.12 "HgN/A
7:00 AM64 °FPartly cloudy.3 mph83%30.12 "HgN/A
6:30 AM64 °FPartly cloudy.10 mph83%30.12 "HgN/A
6:00 AM64 °FPartly cloudy.13 mph83%30.12 "HgN/A
5:30 AM64 °FPartly cloudy.6 mph83%30.12 "HgN/A
12:00 AM66 °FPassing clouds.15 mph83%30.09 "HgN/A
11:30 PM
Aug 28
66 °FPassing clouds.14 mph83%30.09 "HgN/A
11:00 PM66 °FPassing clouds.15 mph83%30.09 "HgN/A
10:30 PM66 °FPassing clouds.16 mph83%30.09 "HgN/A
10:00 PM66 °FPassing clouds.17 mph88%30.07 "HgN/A
9:30 PM68 °FPartly sunny.20 mph83%30.07 "HgN/A
9:00 PM68 °FPartly sunny.18 mph88%30.07 "HgN/A
8:30 PM70 °FPassing clouds.14 mph83%30.04 "HgN/A
8:00 PM72 °FPassing clouds.14 mph78%30.04 "HgN/A
7:30 PM73 °FPassing clouds.15 mph74%30.04 "HgN/A
7:00 PM75 °FPassing clouds.17 mph69%30.04 "HgN/A
6:30 PM77 °FPassing clouds.15 mph69%30.01 "HgN/A
6:00 PM79 °FPassing clouds.18 mph65%30.01 "HgN/A
5:30 PM79 °FPassing clouds.20 mph65%30.01 "HgN/A
5:00 PM84 °FPassing clouds.18 mph55%29.98 "HgN/A
Weather by CustomWeather, © 2014

See weather overviewHow to use our weather pages